• Processing (Info)

  • MPEC 2023-F113 : 2023 FF3

    The following Minor Planet Electronic Circular may be linked-to from your own Web pages, but must not otherwise be redistributed electronically.

    A form allowing access to any MPEC is at the bottom of this page.


    Read MPEC 2023-F112 Read MPEC 2023-F114


    M.P.E.C. 2023-F113                               Issued 2023 March 23, 02:01 UT
    
         The Minor Planet Electronic Circulars contain information on unusual
             minor planets, routine data on comets and natural satellites,
             and occasional editorial announcements.  They are published
        on behalf of Division F of the International Astronomical Union by the
              Minor Planet Center, Smithsonian Astrophysical Observatory,
                              Cambridge, MA 02138, U.S.A.
    			  
                 Prepared using the Tamkin Foundation Computer Network
    
                                  MPC@CFA.HARVARD.EDU
                URL https://www.minorplanetcenter.net/    ISSN 1523-6714
    
                                    2023 FF3                                 
    
    
    Observations:
         K23F03F  C2023 03 18.37117 13 09 13.65 +12 08 19.5          19.6 GVEF113703
         K23F03F  C2023 03 18.38168 13 09 08.94 +12 06 46.3          19.8 GVEF113703
         K23F03F* C2023 03 21.94152512 36 25.793+00 42 58.90         19.24cVEF113M22
         K23F03F  C2023 03 21.94333212 36 24.533+00 42 34.13         19.34cVEF113M22
         K23F03F  C2023 03 21.94649012 36 22.243+00 41 46.79         18.68cVEF113M22
         K23F03F  C2023 03 21.97256812 36 03.571+00 35 23.06         18.96cVEF113M22
         K23F03F KC2023 03 22.06779012 34 56.30 +00 10 25.7          18.4 GXEF113I93
         K23F03F 1C2023 03 22.06842 12 34 55.35 +00 10 11.0          20.1 VXEF113033
         K23F03F 1C2023 03 22.06871 12 34 55.15 +00 10 06.7          19.8 VXEF113033
         K23F03F 1C2023 03 22.06899 12 34 54.95 +00 10 02.4          19.9 VXEF113033
         K23F03F KC2023 03 22.07013412 34 54.59 +00 09 50.6          18.6 GXEF113I93
         K23F03F KC2023 03 22.07240012 34 52.94 +00 09 16.7          18.5 GXEF113I93
         K23F03F KC2023 03 22.57671312 28 46.25 -01 58 56.7          18.9 GVEF113474
         K23F03F KC2023 03 22.57733112 28 45.76 -01 59 06.4          18.8 GVEF113474
         K23F03F KC2023 03 22.57794912 28 45.28 -01 59 16.3          18.9 GVEF113474
         K23F03F KC2023 03 22.57918612 28 44.32 -01 59 36.0          18.9 GVEF113474
         K23F03F KC2023 03 22.57980412 28 43.85 -01 59 45.8          18.8 GVEF113474
         K23F03F KC2023 03 22.85307 12 25 17.57 -03 15 19.7          19.9 GXEF113K78
         K23F03F KC2023 03 22.85776 12 25 13.84 -03 16 37.1          19.4 GXEF113K78
         K23F03F KC2023 03 22.85931 12 25 12.61 -03 17 02.8          19.7 GXEF113K78
         K23F03F KC2023 03 22.87788912 24 57.68 -03 22 12.6          19.2 GUEF113L06
         K23F03F KC2023 03 22.87910112 24 56.71 -03 22 32.5          19.0 GUEF113L06
         K23F03F KC2023 03 22.90783112 24 33.64 -03 30 27.5          18.3 GVEF113104
         K23F03F KC2023 03 22.91168512 24 30.54 -03 31 31.7          18.5 GVEF113104
         K23F03F KC2023 03 22.91295912 24 29.31 -03 31 54.7          18.3 GXEF113595
         K23F03F KC2023 03 22.91872912 24 24.64 -03 33 30.4          18.9 GXEF113595
         K23F03F KC2023 03 22.91987312 24 23.92 -03 33 47.8          18.2 GVEF113104
         K23F03F KC2023 03 22.92173112 24 22.24 -03 34 19.9          18.4 GVEF113L01
         K23F03F KC2023 03 22.92370812 24 20.64 -03 34 52.8          18.4 GVEF113L01
         K23F03F KC2023 03 22.92423612 24 20.418-03 35 00.79         18.8 GVEF113K63
         K23F03F KC2023 03 22.92449212 24 20.03 -03 35 06.7          18.8 GXEF113595
         K23F03F KC2023 03 22.92469312 24 19.84 -03 35 09.2          18.4 GVEF113L01
         K23F03F KC2023 03 22.92567812 24 19.03 -03 35 25.6          18.4 GVEF113L01
         K23F03F $C2023 03 22.92619912 24 20.740-03 35 16.94         18.4 GVEF113J04
         K23F03F $C2023 03 22.92654612 24 20.470-03 35 22.75         18.3 GVEF113J04
         K23F03F $C2023 03 22.92689812 24 20.188-03 35 28.71         18.4 GVEF113J04
         K23F03F KC2023 03 22.92863212 24 16.66 -03 36 14.9          18.4 GVEF113L01
         K23F03F KC2023 03 22.92997312 24 15.788-03 36 36.20         18.3 GVEF113K63
    
    Observer details:
    033 Karl Schwarzschild Observatory, Tautenburg.  Observers S. Melnikov, C.
        Hoegner, F. Ludwig, B. Stecklum.  Measurer B. Stecklum.  1.34-m f/3
        Schmidt + CCD.
    104 San Marcello Pistoiese.  Observers P. Bacci, M. Maestripieri.  Measurers
        P. Bacci, L. Tesi, G. Fagioli.  0.60-m F4 Reflector + CCD.
    474 Mount John Observatory, Lake Tekapo.  Observers A. C. Gilmore, P. M.
        Kilmartin.  Measurer P. M. Kilmartin.  1.0-m f/7.7 reflector + CCD.
    595 Farra d'Isonzo.  Observers G. Panterotto, E. Pettarin.  Measurer E.
        Pettarin.  0.61-m f/4.5 reflector + CCD.
    703 Catalina Sky Survey.  Observer G. J. Leonard.  Measurers B. Gray, D.
        Rankin, F. C. Shelly.  0.68-m Schmidt + 10K CCD.
    I93 St Pardon de Conques.  Observer F. Losse.  0.40-m f/3.7 reflector + CCD.
    J04 ESA Optical Ground Station, Tenerife.  Observers P. Ruiz, M. Micheli, F.
        Ocana, L. Conversi.  Measurers F. Ocana, M. Micheli, R. Kresken, A.
        Knofel, M. Busch.  1.0-m f/4.4 reflector + CCD.
    K63 G. Pascoli Observatory, Castelvecchio Pascoli.  Observer R. Bacci.  0.41-m
        f/3.2 Reflector + CCD.
    K78 iota Scorpii Observatory, La Spezia.  Observers G. Scarfi, P. Boongerd.
        0.40-m f/6.1 reflector + CCD.
    L01 Visnjan Observatory, Tican.  Observer K. Korlevic.  1.0-m f/2.9 reflector
        + CCD.
    L06 Sormano 2 Observatory, Bellagio Via Lattea.  Observers E. Valli, G.
        Ventre.  Measurer P. Sicoli.  0.36m Schmidt Cassegrain + CCD.
    M22 ATLAS South Africa, Sutherland.  Observers L. Denneau, R. Siverd, J.
        Tonry, H. Weiland.  Measurers L. Denneau, N. Erasmus, A. Fitzsimmons, A.
        Lawrence, J. Robinson, R. Siverd, J. Tonry, H. Weiland.  0.5-m Reflector +
        CCD.
    
    Orbital elements:
    2023 FF3                                                 Earth MOID = 0.1035 AU
    Epoch 2023 Feb. 25.0 TT = JDT 2460000.5                 MPC                     
    M 334.57668              (2000.0)            P               Q                  
    n   0.33546546     Peri.  241.11757     -0.45717428     +0.88905074             
    a   2.0513393      Node     2.16582     -0.41320235     -0.18833585             
    e   0.5552219      Incl.   39.60645     -0.78756301     -0.41727495             
    P   2.94           H   22.88          G   0.15           U   8                  
    Residuals in seconds of arc
    230318 703  0.6-  0.3+    230322 474  0.0   0.1-    230322 104  0.2-  0.1+
    230318 703  0.3+  0.2-    230322 474  0.1-  0.2-    230322 L01  0.0   0.1+
    230321 M22  0.1+  0.7-    230322 474  0.1-  0.1-    230322 L01  0.1-  0.1+
    230321 M22  0.6+  1.1+    230322 474  0.0   0.1-    230322 K63  0.1-  0.1-
    230321 M22  0.1+  0.1+    230322 K78  0.2+  0.1-    230322 595  0.3+  0.2-
    230321 M22  0.5+  0.2+    230322 K78  0.2+  0.0     230322 L01  0.1-  0.1+
    230322 I93  0.4+  0.2-    230322 K78  0.3+  0.0     230322 L01  0.3-  0.2+
    230322 033  0.1-  0.4-    230322 L06  0.5-  0.7-    230322 J04  0.1-  0.1+
    230322 033  0.1+  0.3-    230322 L06  0.5-  0.5-    230322 J04  0.1+  0.1+
    230322 033  0.1+  0.4-    230322 104  0.2-  0.0     230322 J04  0.1+  0.0
    230322 I93  0.2+  0.3-    230322 104  0.1-  0.1-    230322 L01  0.0   0.1+
    230322 I93  0.0   0.3-    230322 595  0.2-  0.2-    230322 K63  0.1+  0.1+
    230322 474  0.1+  0.3-    230322 595  0.4-  0.1+
    
    Ephemeris:
    2023 FF3                 a,e,i = 2.05, 0.56, 40                  q = 0.9124
    Date    TT    R. A. (2000) Decl.     Delta      r    Elong.  Phase     V
    2023 02 21    14 05 14.7 +31 14 26   0.5201  1.3462   123.2    37.9    23.6
    ...
    2023 03 08    13 52 09.7 +25 52 50   0.3012  1.2282   136.4    33.9    22.1
    ...
    2023 03 16    13 24 05.9 +17 04 23   0.1945  1.1677   150.5    24.8    20.8
    ...
    2023 03 22    12 35 45.1 +00 28 13   0.1293  1.1243   171.7     7.3    19.2
    2023 03 23    12 23 19.6 -03 55 01   0.1213  1.1173   174.7     4.7    18.9
    2023 03 24    12 09 06.8 -08 51 25   0.1145  1.1103   172.2     7.0    18.9
    ...
    2023 03 30    09 56 15.4 -41 56 19   0.1101  1.0700   128.2    47.2    20.0
    ...
    2023 04 07    06 33 31.7 -54 42 48   0.1805  1.0210    91.4    78.5    21.9
    ...
    2023 04 22    04 30 39.1 -50 27 04   0.3591  0.9498    70.8    88.2    23.7
    
    A. U. Tomatic                (C) Copyright 2023 MPC           M.P.E.C. 2023-F113
    


    Read MPEC 2023-F112 Read MPEC 2023-F114


    MPEC number:

    Enter an MPEC number in one of the following forms:

    • 1997-B01 (the full form)
    • J97B01 (the packed version of the full form)
    • B01 (the abbreviated form)